Regional Weather Roundup
Issued by NWS Sterling, VA

Home | Current Version | Previous Version | Graphics & Text | Print | Product List | Glossary On
Versions: 1 2 3 4 5 6 7 8 9 10 11 12 13 14 15 16 17 18 19 20 21 22 23 24 25 26 27
000
ASUS41 KLWX 212111
RWRLWX

REGIONAL WEATHER ROUNDUP
NATIONAL WEATHER SERVICE BALTIMORE MD/WASHINGTON DC
500 PM EDT THU SEP 21 2017

Note: "FAIR" indicates few or no clouds below 12,000 feet
with no significant weather and/or obstructions to visibility.
 TC=TEMPERATURE CELSIUS

 * =Non NWS site. Station does not report precipitation (e.g. rain,
    snow, etc.), thunder, or fog.

DCZ001-MDZ009-015-VAZ040>042-051-053>054-212200-
WASHINGTON METRO

CITY           SKY/WX    TMP DP  RH WIND       PRES   REMARKS
WASHINGTON NAT MOSUNNY   85  65  51 N5        30.01S
DULLES         PTSUNNY   85  64  49 VRB5      30.02F
ANDREWS AFB    MOSUNNY   84  63  50 N10       30.00F
FT BELVOIR     MOSUNNY   84  64  51 N5        30.01F
QUANTICO       MOSUNNY   84  66  54 CALM      30.01S
COLLEGE PARK*  SUNNY     84  64  51 N5        30.00S
LEESBURG*      SUNNY     82  64  54 N5        30.04S
MANASSAS*      SUNNY     85  63  47 NW9       30.02S
GAITHERSBURG*  MOSUNNY   83  66  56 VRB5      30.04S

$$

MDZ006>007-011-014-212200-
BALTIMORE METRO

CITY           SKY/WX    TMP DP  RH WIND       PRES   REMARKS
BWI AIRPORT    MOSUNNY   86  64  47 NW9       30.00S
MD SCIENCE CTR   N/A     87  63  44 MISG      29.99S
MARTIN STATE   MOSUNNY   84  70  61 NW7       30.01S
ANNAPOLIS      SUNNY     83  72  69 SE8       30.00S
FORT MEADE*    SUNNY     82  63  51 N5        30.03R

$$

MDZ012-015-019>023-212200-
MARYLAND EASTERN SHORE

CITY           SKY/WX    TMP DP  RH WIND       PRES   REMARKS
OCEAN CITY     SUNNY     77  68  73 E8        30.00S
SALISBURY      SUNNY     83  64  52 NE7       29.98S
CAMBRIDGE*     MOSUNNY   82  66  57 NW9       30.00R
EASTON*        MOSUNNY   84  64  51 NW6       30.03S

$$

MDZ017>025-212200-
SOUTHERN MARYLAND

CITY           SKY/WX    TMP DP  RH WIND       PRES   REMARKS
PATUXENT RIVER MOSUNNY   84  64  50 N8        30.00S
ST INIGOES     SUNNY     84  65  52 NE5       29.99F
LEONARDTOWN*   SUNNY     81  64  57 N5        30.02S

$$

MDZ003>005-212200-
NORTH CENTRAL MARYLAND

CITY           SKY/WX    TMP DP  RH WIND       PRES   REMARKS
FREDERICK*     MOSUNNY   88  61  40 VRB5      30.05S
HAGERSTOWN APT SUNNY     85  57  38 NW7       30.04S
WESTMINSTER*   SUNNY     84  64  51 N5        30.04S

$$

MDZ501>502-212200-
WESTERN MARYLAND

CITY           SKY/WX    TMP DP  RH WIND       PRES   REMARKS
OAKLAND*       MOSUNNY   73  55  53 NW3       30.15S
CUMBERLAND*    MOSUNNY   88  55  33 NW6       30.08S

$$

VAZ025>031-212200-
SHENANDOAH VALLEY

CITY           SKY/WX    TMP DP  RH WIND       PRES   REMARKS
WINCHESTER*    SUNNY     81  61  50 NE5       30.04S
FRONT ROYAL*   MOSUNNY   82  63  51 E5        30.03F
LURAY*         MOSUNNY   86  61  42 NE7       30.04S
NEW MARKET*    MOSUNNY   86  56  35 NE7       30.02S
STAUNTON*      SUNNY     84  58  40 NW7       30.07F
WAYNESBORO*    SUNNY     83  60  45 N6        30.08S

$$

WVZ021-048>050-054>055-212200-
EASTERN WEST VIRGINIA PANHANDLE

CITY           SKY/WX    TMP DP  RH WIND       PRES   REMARKS
MARTINSBURG    SUNNY     84  57  39 N6        30.03F
PETERSBURG*    MOSUNNY   89  59  36 NE6       30.05S

$$

VAZ036>039-050-212200-
CENTRAL FOOTHILLS

CITY           SKY/WX    TMP DP  RH WIND       PRES   REMARKS
CHARLOTTESVILL SUNNY     86  62  44 N3        30.03S
CULPEPER*      SUNNY     84  63  49 N5        30.03S
ORANGE*        SUNNY     82  61  47 N3        30.02S
GORDONSVILLE*  SUNNY     85  64  48 CALM      30.02S
WARRENTON*     SUNNY     85  58  39 NW7       30.02S

$$

VAZ055>057-212200-
NORTH AND CENTRAL PIEDMONT

CITY           SKY/WX    TMP DP  RH WIND       PRES   REMARKS
FREDERICKSBRG* MOSUNNY   85  64  49 N5        30.00S
STAFFORD*      MOSUNNY   83  62  48 N8        30.05S

$$

NCZ024-NYZ072-PAZ021-071-VAZ022-071-212200-
OTHER REGIONAL OBSERVATIONS

CITY           SKY/WX    TMP DP  RH WIND       PRES   REMARKS
NEW YORK CITY  CLOUDY    80  61  52 NE7       30.02R
PHILADELPHIA   PTSUNNY   87  61  41 N10G21    29.98S
PITTSBURGH     MOSUNNY   84  62  47 CALM      30.08F
ROANOKE        MOSUNNY   85  63  47 S5        30.06F
RICHMOND       MOSUNNY   88  62  41 N10       30.00S
RALEIGH        TSTM      74  68  81 CALM      30.02R

$$

ANZ530>537-212200-
MARINE OBSERVATIONS

STATION/POSITION TIME  TEMP    WIND        PRES
                       AIR SEA DIR/SP/G
                 (UTC) (F)     (DEG/KT/KT) (MB)
THOMAS PT LIGHT  2100   80 76   CALM  /  2   N/A
BALT KEY BRIDGE  2036   81     120/  5/  6 1015.6F
COVE POINT       2036   78     350/  7/  7 1016.7F
LEWISETTA        2036   81 76  310/  1/  2 1015.9S
SOLOMONS ISLAND  2036   81 78   10/  8/  9 1015.6S
PINEY POINT      2036          320/  6/  6   N/A

$$





USA.gov is the U.S. government's official web portal to all federal, state and local government web resources and services.